TimeEST,TemperatureF,Dew PointF,Humidity,Sea Level PressureIn,VisibilityMPH,Wind Direction,Wind SpeedMPH,Gust SpeedMPH,PrecipitationIn,Events,Conditions,WindDirDegrees,DateUTC
12:51 AM,42.1,34.0,73,30.25,10.0,South,3.5,-,N/A,,Clear,190,2012-12-01 05:51:00
1:51 AM,44.1,35.1,71,30.24,10.0,SSW,3.5,-,N/A,,Unknown,210,2012-12-01 06:51:00
2:51 AM,41.0,35.1,79,30.27,10.0,Calm,Calm,-,N/A,,Unknown,0,2012-12-01 07:51:00
3:51 AM,41.0,34.0,76,30.28,10.0,Calm,Calm,-,N/A,,Clear,0,2012-12-01 08:51:00
4:51 AM,37.9,33.1,83,30.30,10.0,Calm,Calm,-,N/A,,Clear,0,2012-12-01 09:51:00
5:51 AM,37.0,33.1,86,30.30,10.0,Calm,Calm,-,N/A,,Clear,0,2012-12-01 10:51:00
6:51 AM,35.1,32.0,89,30.31,10.0,ENE,3.5,-,N/A,,Clear,70,2012-12-01 11:51:00
7:51 AM,39.0,35.1,86,30.32,10.0,East,3.5,-,N/A,,Clear,100,2012-12-01 12:51:00
8:51 AM,43.0,37.9,82,30.33,10.0,Calm,Calm,-,N/A,,Clear,0,2012-12-01 13:51:00
9:51 AM,48.0,39.9,74,30.34,10.0,Calm,Calm,-,N/A,,Scattered Clouds,0,2012-12-01 14:51:00
10:51 AM,52.0,42.1,69,30.34,10.0,South,6.9,-,N/A,,Mostly Cloudy,190,2012-12-01 15:51:00
11:51 AM,55.9,44.1,64,30.30,10.0,SSW,4.6,-,N/A,,Clear,200,2012-12-01 16:51:00
12:51 PM,61.0,44.1,54,30.27,10.0,SW,8.1,-,N/A,,Clear,220,2012-12-01 17:51:00
1:51 PM,62.1,44.1,52,30.25,10.0,South,10.4,-,N/A,,Clear,170,2012-12-01 18:51:00
2:51 PM,62.1,44.1,52,30.25,10.0,South,5.8,-,N/A,,Clear,170,2012-12-01 19:51:00
3:51 PM,62.1,44.1,52,30.23,10.0,SSW,3.5,-,N/A,,Scattered Clouds,200,2012-12-01 20:51:00
4:51 PM,60.1,43.0,53,30.23,10.0,Calm,Calm,-,N/A,,Clear,0,2012-12-01 21:51:00
5:51 PM,59.0,43.0,55,30.24,10.0,Calm,Calm,-,N/A,,Clear,0,2012-12-01 22:51:00
6:51 PM,55.0,43.0,64,30.24,10.0,SE,3.5,-,N/A,,Clear,130,2012-12-01 23:51:00
7:51 PM,53.1,43.0,69,30.24,10.0,Calm,Calm,-,N/A,,Clear,0,2012-12-02 00:51:00
8:51 PM,46.9,41.0,80,30.24,10.0,Calm,Calm,-,N/A,,Clear,0,2012-12-02 01:51:00
9:51 PM,48.9,42.1,77,30.23,10.0,Calm,Calm,-,N/A,,Clear,0,2012-12-02 02:51:00
10:51 PM,46.9,42.1,83,30.23,10.0,Calm,Calm,-,N/A,,Clear,0,2012-12-02 03:51:00
11:51 PM,48.9,41.0,74,30.22,10.0,Calm,Calm,-,N/A,,Clear,0,2012-12-02 04:51:00